Regional Weather Roundup
Issued by NWS

Current Version | Previous Version | Text Only | Print | Product List | Glossary On
Versions: 1 2 3 4 5 6 7 8 9 10 11 12 13 14 15 16 17 18 19 20 21 22 23 24 25 26 27 28 29 30 31 32 33 34 35 36 37 38 39 40 41 42 43 44 45 46 47 48 49 50
000
ASUS44 KMEG 260710
RWRTN
TENNESSEE HOURLY STATE WEATHER ROUNDUP
NATIONAL WEATHER SERVICE MEMPHIS TN
200 AM CDT SUN OCT 26 2014

TNZ002-004-019-021-049-052-054-088>092-260800-
WEST TENNESSEE

CITY           SKY/WX    TMP DP  RH WIND       PRES   REMARKS
MEMPHIS INTL   CLEAR     65  62  90 SW3       30.01F
NWS MEMPHIS      N/A     62 N/A N/A MISG        N/A
JACKSON        CLEAR     59  57  94 CALM      30.01S FOG
DYERSBURG      CLEAR     59  50  72 CALM      30.01S
UNION CITY     MOCLDY    54  54 100 CALM      29.99S VSB 1/2
PARIS            N/A     55  55 100 CALM      30.01S
HUNTINGDON     MOCLDY    54  54 100 CALM      30.01S VSB 1/4
LEXINGTON      CLOUDY    55  54  94 CALM      30.00F VSB 1/4
SAVANNAH       CLEAR     55  55 100 CALM      30.02F
$$

TNZ008-025-027-028-033-062-065-066-260800-
NORTH MIDDLE TENNESSEE

CITY           SKY/WX    TMP DP  RH WIND       PRES   REMARKS
NASHVILLE      CLEAR     57  56  96 S3        30.01F FOG
CLARKSVILLE    FOG       53  52  96 CALM      30.01R VSB 1/4
SMYRNA         FOG       52  52 100 CALM      30.02S VSB<1/4
COOKEVILLE     CLOUDY    46  45  93 CALM      30.02S VSB 1/4
CROSSVILLE     CLEAR     55  53  93 CALM      30.05S FOG
$$

TNZ061-075-076-078-094-096-097-260800-
SOUTH MIDDLE TENNESSEE

CITY           SKY/WX    TMP DP  RH WIND       PRES   REMARKS
FAYETTEVILLE   PTCLDY    57  57 100 MISG      30.03F
TULLAHOMA      CLOUDY    50  48  93 CALM      30.04F VSB 1/4
WINCHESTER     PTCLDY    54  54 100 CALM      30.04F
MCMINNVILLE    CLOUDY    52  52 100 CALM      30.03F VSB 0
COLUMBIA       PTCLDY   N/A N/A N/A CALM      30.01S
SHELBYVILLE      N/A     54  54 100 CALM      30.04S VSB 1/2
$$

TNZ017-018-042-046-047-260800-
NORTHEAST TENNESSEE

CITY           SKY/WX    TMP DP  RH WIND       PRES   REMARKS
TRI CITIES     PTCLDY    49  46  90 CALM      29.99S
ELIZABETHTON   CLOUDY    59  48  67 VRB5      29.99S
$$

TNZ012-013-036-069-073-074-260800-
CENTRAL EAST TENNESSEE

CITY           SKY/WX    TMP DP  RH WIND       PRES   REMARKS
KNOXVILLE      CLEAR     56  51  84 W7        30.00S
OAK RIDGE      CLEAR     50  48  93 CALM      30.02S
GATLINBURG     SUNNY     48  46  93 CALM      30.00S
MORRISTOWN     SUNNY     55  50  82 W3        30.01R
$$

TNZ083-085-099-260800-
SOUTHEAST TENNESSEE

CITY           SKY/WX    TMP DP  RH WIND       PRES   REMARKS
CHATTANOOGA    CLEAR     56  54  93 CALM      30.03S
$$

SKY/WX REPORTED AS FAIR MEANS FEW OR NO CLOUDS BELOW
12 THOUSAND FEET.




USA.gov is the U.S. government's official web portal to all federal, state and local government web resources and services.